"Pseudo-MPEC" for ZTF10BV

Created 2026 Mar 7 4:35:27 UT using Find_Orb

Click here for an explanation of pseudo-MPECs

 
 Astrometry: 
     ZTF10BV 0C2026 02 14.14197806 33 56.461-02 25 15.72   ~2F4o 18.98iUNEOCPI41
     ZTF10BV*0C2026 02 14.21181406 35 19.141-03 23 50.17   ~2ECK 19.32RUNEOCPI41
     ZTF10BV 0C2026 02 14.21216106 35 19.575-03 24 07.05   ~2ECK 19.32RUNEOCPI41
     ZTF10BV 0C2026 02 14.23126606 35 42.540-03 40 22.03   ~2ECK 19.09gUNEOCPI41
     ZTF10BV 0C2026 02 14.23161406 35 42.940-03 40 40.10   ~2ECK 19.09gUNEOCPI41

Station data:
(I41) Palomar Mountain--ZTF  (N33.357336 W116.859780)  US/California.
   Observers B. T. Bolin, Z. T. F. Collaboration. Measurers B. T. Bolin,
   Z.-Y. Lin, F. J. Masci. 1.2-m f/2.4 Schmidt.

Orbital elements:  ZTF10BV
   Perigee 2026 Feb 16.636056 +/- 0.0194 TT = 15:15:55.2 (JD 2461088.136056)
Epoch 2026 Feb 14.0 TT = JDT 2461085.5                           AutoNEOCP
q225299.5926 +/- 13424              (J2000 equator)
H   30.57 G 0.15                    Peri.  256.428439 +/- 3.2
z  -0.8660424397 +/- 1.92           Node   276.816659 +/- 0.010
e   1.00130429 +/- 0                Incl.   53.131306 +/- 0.24
From 5 observations 2026 Feb. 14 (2.2 hr); mean residual 0".26
Residuals in arcseconds: 
260214 I41  .10+  .03+    260214 I41  .06-  .31+    260214 I41  .00   .07-    
260214 I41  .40-  .47-    260214 I41  .36+  .19+    

Ephemerides (geocentric):
Date (UTC) HH   RA             Dec           delta  r     elong  mag " sig PA
---- --------  ------------   ------------  ------ ------ -----  --- --------
2026 03 07 05  19 50 45.058   +23 30 00.91  .00975 .98690  56.4 25?? 273'  44
2026 03 07 06  19 50 54.177   +23 31 34.86  .00976 .98690  56.4 25?? 273'  44
2026 03 07 07  19 51 03.284   +23 33 08.41  .00978 .98691  56.4 25?? 273'  44
2026 03 07 08  19 51 12.379   +23 34 41.57  .00980 .98691  56.4 25?? 273'  45
2026 03 07 09  19 51 21.461   +23 36 14.35  .00981 .98691  56.4 25?? 273'  45
2026 03 07 10  19 51 30.530   +23 37 46.74  .00983 .98691  56.4 25?? 273'  45
2026 03 07 11  19 51 39.587   +23 39 18.74  .00985 .98692  56.4 25?? 272'  45
2026 03 07 12  19 51 48.632   +23 40 50.37  .00986 .98692  56.4 25?? 272'  45
2026 03 07 13  19 51 57.664   +23 42 21.62  .00988 .98692  56.4 25?? 272'  45
2026 03 07 14  19 52 06.685   +23 43 52.49  .00989 .98692  56.4 25?? 272'  45
2026 03 07 15  19 52 15.693   +23 45 22.99  .00991 .98693  56.4 25?? 272'  45
2026 03 07 16  19 52 24.689   +23 46 53.11  .00993 .98693  56.4 25?? 272'  45
2026 03 07 17  19 52 33.674   +23 48 22.87  .00994 .98693  56.4 25?? 272'  45
2026 03 07 18  19 52 42.646   +23 49 52.25  .00996 .98693  56.4 25?? 271'  45
2026 03 07 19  19 52 51.607   +23 51 21.28  .00997 .98694  56.4 25?? 271'  45
2026 03 07 20  19 53 00.556   +23 52 49.94  .00999 .98694  56.5 25?? 271'  45
2026 03 07 21  19 53 09.494   +23 54 18.24  .01001 .98694  56.5 25?? 271'  45
2026 03 07 22  19 53 18.420   +23 55 46.18  .01002 .98694  56.5 25?? 271'  45
2026 03 07 23  19 53 27.334   +23 57 13.76  .01004 .98695  56.5 25?? 271'  45
2026 03 08 00  19 53 36.237   +23 58 40.99  .01005 .98695  56.5 25?? 271'  45
2026 03 08 01  19 53 45.129   +24 00 07.87  .01007 .98695  56.5 25?? 271'  45
2026 03 08 02  19 53 54.010   +24 01 34.40  .01009 .98695  56.5 25?? 270'  45
2026 03 08 03  19 54 02.879   +24 03 00.58  .01010 .98696  56.5 25?? 270'  45
2026 03 08 04  19 54 11.737   +24 04 26.41  .01012 .98696  56.5 25?? 270'  45
2026 03 08 05  19 54 20.585   +24 05 51.90  .01013 .98696  56.5 25?? 270'  45
2026 03 08 06  19 54 29.421   +24 07 17.05  .01015 .98696  56.5 25?? 270'  45
2026 03 08 07  19 54 38.247   +24 08 41.85  .01017 .98697  56.5 25?? 270'  45
2026 03 08 08  19 54 47.061   +24 10 06.32  .01018 .98697  56.5 25?? 270'  45
2026 03 08 09  19 54 55.865   +24 11 30.45  .01020 .98697  56.5 25?? 270'  45
2026 03 08 10  19 55 04.658   +24 12 54.25  .01021 .98698  56.5 25?? 269'  45
2026 03 08 11  19 55 13.441   +24 14 17.72  .01023 .98698  56.5 25?? 269'  45
2026 03 08 12  19 55 22.213   +24 15 40.85  .01025 .98698  56.5 25?? 269'  45
2026 03 08 13  19 55 30.974   +24 17 03.66  .01026 .98698  56.5 25?? 269'  45
2026 03 08 14  19 55 39.725   +24 18 26.14  .01028 .98699  56.5 25?? 269'  45
2026 03 08 15  19 55 48.466   +24 19 48.29  .01029 .98699  56.5 25?? 269'  45
2026 03 08 16  19 55 57.196   +24 21 10.12  .01031 .98699  56.5 25?? 269'  45
2026 03 08 17  19 56 05.917   +24 22 31.64  .01032 .98699  56.5 25?? 269'  45
2026 03 08 18  19 56 14.627   +24 23 52.83  .01034 .98700  56.5 25?? 268'  45
2026 03 08 19  19 56 23.326   +24 25 13.70  .01036 .98700  56.5 25?? 268'  45
2026 03 08 20  19 56 32.016   +24 26 34.26  .01037 .98700  56.5 25?? 268'  45
2026 03 08 21  19 56 40.696   +24 27 54.50  .01039 .98701  56.5 25?? 268'  45
2026 03 08 22  19 56 49.366   +24 29 14.44  .01040 .98701  56.5 25?? 268'  45
2026 03 08 23  19 56 58.026   +24 30 34.06  .01042 .98701  56.5 25?? 268'  45
2026 03 09 00  19 57 06.676   +24 31 53.37  .01044 .98701  56.5 25?? 268'  45
2026 03 09 01  19 57 15.316   +24 33 12.38  .01045 .98702  56.5 25?? 268'  45
2026 03 09 02  19 57 23.947   +24 34 31.08  .01047 .98702  56.5 25?? 267'  45
2026 03 09 03  19 57 32.568   +24 35 49.48  .01048 .98702  56.5 25?? 267'  46
2026 03 09 04  19 57 41.179   +24 37 07.57  .01050 .98703  56.5 25?? 267'  46